| time (UTC) | temp F | wind direction | speed MPH | gust MPH | rain 1hr in | rain 24hr in | rain mn in | humidity % | barometer mb |
| 20260509160003 | 50 | 146 | 3.0 | 6.0 | 0.02 | 0.11 | 0.10 | 91 | 1010.6 |
| 20260509154502 | 50 | 165 | 2.0 | 9.0 | 0.02 | 0.10 | 0.09 | 91 | 1010.8 |
| 20260509153118 | 50 | 157 | 4.0 | 7.0 | 0.02 | 0.09 | 0.08 | 92 | 1010.8 |
| 20260509151600 | 50 | 181 | 1.0 | 3.0 | 0.03 | 0.09 | 0.08 | 91 | 1010.6 |
| 20260509150058 | 50 | 109 | 1.0 | 4.0 | 0.04 | 0.09 | 0.08 | 91 | 1010.4 |
| 20260509144502 | 50 | 203 | 0.0 | 2.0 | 0.05 | 0.08 | 0.07 | 90 | 1010.7 |
| 20260509143001 | 50 | 205 | 0.0 | 3.0 | 0.04 | 0.07 | 0.06 | 90 | 1011.1 |
| 20260509141600 | 50 | 159 | 1.0 | 7.0 | 0.02 | 0.05 | 0.04 | 89 | 1011.1 |
| 20260509134557 | 50 | 134 | 0.0 | 2.0 | 0.01 | 0.03 | 0.02 | 88 | 1010.5 |
| 20260509133057 | 50 | 114 | 0.0 | 2.0 | 0.01 | 0.03 | 0.02 | 89 | 1010.5 |
| 20260509131553 | 49 | 104 | 1.0 | 3.0 | 0.01 | 0.03 | 0.02 | 90 | 1010.5 |
| 20260509124553 | 48 | 121 | 0.0 | 2.0 | 0.00 | 0.02 | 0.01 | 90 | 1010.7 |
| 20260509123050 | 48 | 121 | 1.0 | 2.0 | 0.00 | 0.02 | 0.01 | 91 | 1010.6 |
| 20260509121547 | 48 | 265 | 0.0 | 2.0 | 0.00 | 0.02 | 0.01 | 93 | 1010.8 |
| 20260509120042 | 47 | 265 | 0.0 | 2.0 | 0.00 | 0.02 | 0.01 | 93 | 1011.0 |
| 20260509114549 | 47 | 265 | 0.0 | 1.0 | 0.01 | 0.02 | 0.01 | 93 | 1010.8 |
| 20260509113043 | 47 | 265 | 0.0 | 1.0 | 0.01 | 0.02 | 0.01 | 93 | 1010.8 |
| 20260509111540 | 46 | 265 | 0.0 | 3.0 | 0.01 | 0.02 | 0.01 | 93 | 1010.7 |
| 20260509110038 | 46 | 266 | 0.0 | 1.0 | 0.01 | 0.02 | 0.01 | 93 | 1010.9 |
| 20260509104538 | 46 | 266 | 0.0 | 2.0 | 0.00 | 0.01 | 0.00 | 92 | 1010.6 |
| 20260509103044 | 46 | 266 | 1.0 | 2.0 | 0.00 | 0.01 | 0.00 | 92 | 1010.6 |
| 20260509101555 | 46 | 266 | 0.0 | 4.0 | 0.00 | 0.01 | 0.00 | 92 | 1010.6 |
| 20260509100036 | 46 | 143 | 0.0 | 3.0 | 0.00 | 0.01 | 0.00 | 91 | 1010.8 |
| 20260509094539 | 46 | 138 | 0.0 | 1.0 | 0.00 | 0.01 | 0.00 | 91 | 1010.8 |
| 20260509093034 | 46 | 138 | 0.0 | 0.0 | 0.00 | 0.01 | 0.00 | 91 | 1010.8 |
| 20260509091532 | 46 | 138 | 0.0 | 0.0 | 0.00 | 0.01 | 0.00 | 91 | 1011.0 |
| 20260509090038 | 46 | 138 | 0.0 | 0.0 | 0.00 | 0.01 | 0.00 | 91 | 1011.1 |
| 20260509084529 | 46 | 138 | 0.0 | 1.0 | 0.00 | 0.01 | 0.00 | 91 | 1011.2 |
| 20260509083035 | 46 | 138 | 0.0 | 0.0 | 0.00 | 0.01 | 0.00 | 91 | 1011.5 |
| 20260509081529 | 46 | 138 | 0.0 | 0.0 | 0.00 | 0.01 | 0.00 | 91 | 1011.5 |
| 20260509080028 | 46 | 138 | 0.0 | 0.0 | 0.00 | 0.01 | 0.00 | 91 | 1011.7 |
| 20260509074526 | 46 | 138 | 0.0 | 1.0 | 0.00 | 0.01 | 0.00 | 91 | 1011.8 |
| 20260509073030 | 46 | 138 | 0.0 | 1.0 | 0.00 | 0.01 | 0.00 | 91 | 1011.8 |
| 20260509071533 | 46 | 138 | 0.0 | 0.0 | 0.00 | 0.01 | 0.00 | 91 | 1011.6 |
| 20260509070025 | 46 | 138 | 0.0 | 2.0 | 0.00 | 0.01 | 0.00 | 90 | 1011.5 |
| 20260509064524 | 47 | 138 | 0.0 | 1.0 | 0.00 | 0.01 | 0.00 | 90 | 1011.7 |
| 20260509063024 | 47 | 138 | 0.0 | 2.0 | 0.00 | 0.01 | 0.00 | 90 | 1011.6 |
| 20260509061523 | 47 | 138 | 0.0 | 2.0 | 0.00 | 0.01 | 0.00 | 90 | 1011.8 |
| 20260509060021 | 47 | 138 | 1.0 | 2.0 | 0.00 | 0.01 | 0.00 | 89 | 1012.0 |
| 20260509054517 | 47 | 138 | 1.0 | 3.0 | 0.00 | 0.02 | 0.00 | 89 | 1012.3 |
| 20260509053017 | 46 | 175 | 1.0 | 3.0 | 0.00 | 0.02 | 0.00 | 91 | 1012.7 |
| 20260509051514 | 45 | 144 | 1.0 | 4.0 | 0.00 | 0.02 | 0.00 | 91 | 1012.8 |
| 20260509050019 | 45 | 151 | 0.0 | 5.0 | 0.00 | 0.02 | 0.00 | 90 | 1012.7 |
| 20260509044508 | 45 | 238 | 0.0 | 0.0 | 0.00 | 0.03 | 0.00 | 90 | 1011.8 |
| 20260509043007 | 45 | 238 | 0.0 | 0.0 | 0.00 | 0.03 | 0.00 | 90 | 1012.0 |
| 20260509041506 | 45 | 238 | 0.0 | 0.0 | 0.00 | 0.03 | 0.00 | 90 | 1012.0 |
| 20260509040004 | 45 | 238 | 0.0 | 1.0 | 0.00 | 0.03 | 0.00 | 90 | 1012.1 |
| 20260509034600 | 45 | 238 | 0.0 | 1.0 | 0.00 | 0.03 | 0.03 | 89 | 1012.2 |
| 20260509033100 | 45 | 238 | 0.0 | 0.0 | 0.00 | 0.03 | 0.03 | 88 | 1012.7 |
| 20260509031603 | 45 | 238 | 0.0 | 1.0 | 0.00 | 0.03 | 0.03 | 87 | 1012.7 |
| 20260509030113 | 45 | 238 | 0.0 | 0.0 | 0.00 | 0.03 | 0.03 | 87 | 1012.6 |
| 20260509024601 | 46 | 238 | 0.0 | 1.0 | 0.00 | 0.03 | 0.03 | 85 | 1012.4 |
| 20260509023059 | 47 | 238 | 0.0 | 1.0 | 0.00 | 0.03 | 0.03 | 85 | 1012.4 |
| 20260509021558 | 47 | 238 | 0.0 | 0.0 | 0.00 | 0.03 | 0.03 | 85 | 1012.5 |
| 20260509020107 | 48 | 238 | 0.0 | 1.0 | 0.00 | 0.03 | 0.03 | 84 | 1012.4 |
| 20260509014557 | 48 | 238 | 0.0 | 1.0 | 0.00 | 0.03 | 0.03 | 84 | 1012.3 |
| 20260509013100 | 48 | 238 | 0.0 | 0.0 | 0.00 | 0.03 | 0.03 | 82 | 1012.1 |
| 20260509011558 | 48 | 238 | 0.0 | 0.0 | 0.00 | 0.03 | 0.03 | 82 | 1012.0 |
| 20260509010054 | 49 | 238 | 0.0 | 0.0 | 0.00 | 0.03 | 0.03 | 83 | 1011.7 |
| 20260509004600 | 49 | 238 | 0.0 | 1.0 | 0.00 | 0.03 | 0.03 | 83 | 1011.7 |
| 20260509003057 | 49 | 238 | 0.0 | 0.0 | 0.00 | 0.03 | 0.03 | 81 | 1011.5 |
| 20260509001553 | 50 | 238 | 0.0 | 1.0 | 0.00 | 0.03 | 0.03 | 82 | 1011.3 |
| 20260509000055 | 50 | 238 | 0.0 | 2.0 | 0.00 | 0.03 | 0.03 | 79 | 1011.3 |
| 20260508234552 | 51 | 238 | 0.0 | 2.0 | 0.00 | 0.03 | 0.03 | 75 | 1011.1 |
| 20260508233052 | 52 | 238 | 0.0 | 2.0 | 0.00 | 0.03 | 0.03 | 70 | 1011.1 |
| 20260508231550 | 53 | 238 | 0.0 | 1.0 | 0.00 | 0.03 | 0.03 | 65 | 1011.0 |
| 20260508230049 | 53 | 238 | 0.0 | 1.0 | 0.00 | 0.03 | 0.03 | 62 | 1010.8 |
| 20260508224613 | 53 | 238 | 0.0 | 2.0 | 0.00 | 0.03 | 0.03 | 61 | 1010.9 |
| 20260508223053 | 54 | 238 | 0.0 | 2.0 | 0.00 | 0.03 | 0.03 | 60 | 1010.8 |
| 20260508221548 | 54 | 244 | 1.0 | 8.0 | 0.00 | 0.03 | 0.03 | 60 | 1010.7 |
| 20260508220052 | 54 | 164 | 0.0 | 1.0 | 0.00 | 0.03 | 0.03 | 62 | 1010.7 |
| 20260508214547 | 54 | 164 | 1.0 | 3.0 | 0.00 | 0.03 | 0.03 | 60 | 1010.9 |
| 20260508213046 | 53 | 195 | 0.0 | 3.0 | 0.00 | 0.03 | 0.03 | 63 | 1010.9 |
| 20260508211551 | 53 | 268 | 1.0 | 3.0 | 0.00 | 0.03 | 0.03 | 63 | 1010.9 |
| 20260508210047 | 53 | 331 | 0.0 | 3.0 | 0.00 | 0.03 | 0.03 | 62 | 1010.9 |
| 20260508204544 | 54 | 235 | 2.0 | 5.0 | 0.00 | 0.03 | 0.03 | 59 | 1010.9 |
| 20260508203045 | 54 | 327 | 2.0 | 6.0 | 0.00 | 0.03 | 0.03 | 58 | 1011.0 |
| 20260508201543 | 52 | 333 | 2.0 | 4.0 | 0.00 | 0.03 | 0.03 | 63 | 1011.0 |
| 20260508200043 | 52 | 309 | 1.0 | 4.0 | 0.00 | 0.03 | 0.03 | 62 | 1011.2 |
| 20260508194543 | 52 | 320 | 1.0 | 6.0 | 0.00 | 0.03 | 0.03 | 61 | 1011.2 |
| 20260508193041 | 53 | 294 | 3.0 | 7.0 | 0.00 | 0.03 | 0.03 | 59 | 1011.2 |
| 20260508191547 | 54 | 271 | 1.0 | 6.0 | 0.00 | 0.03 | 0.03 | 53 | 1011.2 |
| 20260508190040 | 55 | 267 | 3.0 | 8.0 | 0.00 | 0.03 | 0.03 | 51 | 1011.2 |
| 20260508184544 | 57 | 297 | 4.0 | 9.0 | 0.00 | 0.03 | 0.03 | 50 | 1011.2 |
| 20260508183040 | 54 | 196 | 1.0 | 7.0 | 0.00 | 0.03 | 0.03 | 56 | 1011.2 |
| 20260508181536 | 54 | 205 | 3.0 | 8.0 | 0.00 | 0.03 | 0.03 | 55 | 1011.5 |
| 20260508180038 | 53 | 327 | 3.0 | 8.0 | 0.01 | 0.03 | 0.03 | 55 | 1011.6 |
| 20260508174536 | 55 | 215 | 3.0 | 8.0 | 0.01 | 0.03 | 0.03 | 53 | 1011.4 |
| 20260508173033 | 54 | 257 | 4.0 | 10.0 | 0.01 | 0.03 | 0.03 | 52 | 1011.5 |
| 20260508171531 | 53 | 237 | 4.0 | 9.0 | 0.01 | 0.03 | 0.03 | 55 | 1011.4 |
| 20260508170028 | 51 | 254 | 3.0 | 9.0 | 0.00 | 0.02 | 0.02 | 59 | 1011.5 |
| 20260508164527 | 52 | 238 | 4.0 | 8.0 | 0.00 | 0.02 | 0.02 | 58 | 1011.6 |
| 20260508163031 | 52 | 262 | 3.0 | 10.0 | 0.00 | 0.02 | 0.02 | 57 | 1011.7 |
| 20260508161524 | 51 | 281 | 4.0 | 6.0 | 0.00 | 0.02 | 0.02 | 60 | 1012.0 |